GLOBALSTAR M004 DEB, 43357

Orbit data source: Space-Track

GLOBALSTAR M004 DEB, 43357 is space debris in LEO originally from a launch on Sat, 14 Feb 1998 UTC launched from the Air Force Eastern Test Range (AFETR). Debris objects in space refer to the collection of defunct objects orbiting the Earth. Examples of debris include non-operational satellites, rocket bodies, and fragments generated from explosions, collisions, or faulty payload assembly.

Loading next visibility...
Identifier
43357, 1998-008H
Orbit
LEO
Country
Flag of USUS
Related business
Manufacturer
Unknown
Mission
Spacecraft
Bus & Motor
Unknown
Mass
Unknown
Launch date (UTC)
1998-02-14 (28 years ago)
Launch vehicle
Unknown
Launch site
Air Force Eastern Test Range (AFETR)
Object type
Payload
Rocket body
Debris
Shape & HBR
Unknown shape, 0.1 m
Radar Cross Section
Small (<0.1 m²)

Expand to show TLE details & history
Last TLE update: 1 day ago

TLE from 1 day ago
0 GLOBALSTAR M004 DEB
1 43357U 98008H   25304.85846743  .00000941  00000-0  58766-2 0  9994
2 43357  51.9740 105.4446 0088145 303.9095  55.3412 12.60482933449598
Epoch: 2025-10-31T20:36Z
TLE epoch observation values (Epoch: 2025-10-31T20:36:11.585Z)
Latitude
-0°
Longitude
115.99946°
Altitude
1,382.95 km
Speed
7.187 km/s
True Right ascension
07h 01m 46s
True Declination
0° 00' 00"
Sunlit
Object was in daylight at epoch
Visualization orbit readout
Latitude
Unknown
Longitude
Unknown
Altitude
Unknown
Speed
Unknown
Apparent Right ascension
Unknown
Apparent Declination
Unknown
Sunlit
N/A
Visualization observer readout
Local Sidereal Time
23:06:13
Azimuth
Unknown
Elevation
Unknown
Doppler factor
Unknown
Orbital elements
Apogee altitude
1,490.096 km
Perigee altitude
1,352.599 km
Semi-major axis
7,799.484 km
Eccentricity
0.00881
Inclination
51.974°
RAAN
105.4446°
Arg. of periapsis
303.9095°
True anomaly
56.17724°
Mean anomaly
55.3412°
Eccentric anomaly
55.7587°
Mean motion
3.15097 °/min
Orbital period
114.25 mins
BSTAR
0.0058766
Loading maneuver chart data...
Computing Atmospheric mass density...
Loading historical data...
Loading historical data...
Loading historical data...
Loading historical data...
Loading historical data...
Loading historical data...
Loading historical data...

Documentation

Showing up to 5 results
|